EW9525 Weather Reports


Display with metric or nautical units.
time (UTC)temp
F
wind
direction
speed
MPH
gust
MPH
rain 1hr
in
rain 24hr
in
rain mn
in
humidity
%
barometer
mb
20260902114600 66 287 1.0 4.0 0.00 0.00 0.00 76 1008.0
20260902113059 65 275 1.0 3.0 0.00 0.00 0.00 77 1008.1
20260902111600 66 262 1.0 4.0 0.00 0.00 0.00 76 1007.9
20260902104559 65 221 2.0 6.0 0.00 0.00 0.00 78 1008.0
20260902103101 64 211 3.0 4.0 0.00 0.00 0.00 81 1008.1
20260902101559 64 210 2.0 3.0 0.00 0.00 0.00 80 1007.9
20260902100054 64 231 2.0 3.0 0.00 0.00 0.00 80 1007.8
20260902094552 65 221 2.0 3.0 0.00 0.00 0.00 78 1007.9
20260902093118 65 222 1.0 3.0 0.00 0.00 0.00 79 1008.0
20260902091554 65 201 2.0 4.0 0.00 0.00 0.00 79 1008.0
20260902090056 65 220 2.0 4.0 0.00 0.00 0.00 78 1008.0
20260902084555 65 214 3.0 4.0 0.00 0.00 0.00 78 1008.0
20260902083051 65 201 3.0 5.0 0.00 0.00 0.00 77 1007.8
20260902081600 65 197 2.0 3.0 0.00 0.00 0.00 77 1007.5
20260902080043 66 220 2.0 3.0 0.00 0.00 0.00 76 1007.6
20260902074538 67 217 2.0 4.0 0.00 0.00 0.00 74 1007.5
20260902073036 67 174 3.0 4.0 0.00 0.00 0.00 74 1007.5
20260902071536 68 207 2.0 4.0 0.00 0.00 0.00 71 1007.3
20260902070030 70 188 1.0 4.0 0.00 0.00 0.00 67 1007.5
20260902064529 70 257 1.0 4.0 0.00 0.00 0.00 67 1007.2
20260902063031 69 278 0.0 4.0 0.00 0.00 0.00 69 1007.4
20260902061540 70 265 1.0 3.0 0.00 0.00 0.00 69 1007.2
20260902060024 68 216 1.0 2.0 0.00 0.00 0.00 72 1007.4
20260902054520 70 225 3.0 4.0 0.00 0.00 0.00 69 1007.4
20260902053020 72 247 2.0 3.0 0.00 0.00 0.00 63 1007.2
20260902051517 72 234 2.0 4.0 0.00 0.00 0.00 66 1007.2
20260902050013 72 195 2.0 3.0 0.00 0.00 0.00 63 1007.1
20260902044512 74 220 2.0 3.0 0.00 0.00 0.00 60 1007.1
20260902043011 76 217 1.0 3.0 0.00 0.00 0.00 57 1007.2
20260902041513 77 229 3.0 5.0 0.00 0.00 0.00 55 1007.4
20260902040013 76 216 3.0 6.0 0.00 0.00 0.00 57 1007.5
20260902034511 76 202 3.0 4.0 0.00 0.00 0.00 57 1007.6
20260902033011 77 207 3.0 7.0 0.00 0.00 0.00 56 1007.3
20260902031509 77 218 3.0 6.0 0.00 0.00 0.00 56 1007.1
20260902030009 78 202 3.0 4.0 0.00 0.00 0.00 55 1006.9
20260902024518 79 217 4.0 8.0 0.00 0.00 0.00 51 1006.7
20260902023008 78 236 3.0 5.0 0.00 0.00 0.00 54 1006.6
20260902021508 79 211 4.0 6.0 0.00 0.00 0.00 52 1006.4
20260902020007 80 208 3.0 4.0 0.00 0.00 0.00 50 1006.1
20260902014507 82 217 2.0 3.0 0.00 0.00 0.00 48 1006.1
20260902013005 83 202 1.0 2.0 0.00 0.00 0.00 45 1006.1
20260902011505 84 198 0.0 0.0 0.00 0.00 0.00 44 1006.1
20260902010012 86 193 0.0 1.0 0.00 0.00 0.00 41 1006.1
20260902004504 88 200 0.0 4.0 0.00 0.00 0.00 38 1006.2
20260902003003 89 161 3.0 7.0 0.00 0.00 0.00 38 1006.2
20260902001503 90 188 6.0 10.0 0.00 0.00 0.00 36 1006.1
20260902000003 90 150 6.0 11.0 0.00 0.00 0.00 37 1006.0
20260901234502 90 152 7.0 11.0 0.00 0.00 0.00 36 1005.9
20260901233001 91 180 9.0 13.0 0.00 0.00 0.00 35 1006.0
20260901231601 92 162 9.0 16.0 0.00 0.00 0.00 34 1006.0
20260901230059 92 161 6.0 12.0 0.00 0.00 0.00 38 1006.1
20260901224558 94 135 6.0 11.0 0.00 0.00 0.00 33 1006.2
20260901223058 93 162 8.0 14.0 0.00 0.00 0.00 33 1006.3
20260901221557 94 136 8.0 12.0 0.00 0.00 0.00 34 1006.3
20260901220055 95 157 8.0 12.0 0.00 0.00 0.00 31 1006.5
20260901214552 95 166 5.0 9.0 0.00 0.00 0.00 34 1006.8
20260901213109 93 181 6.0 9.0 0.00 0.00 0.00 35 1006.9
20260901211547 92 210 7.0 13.0 0.00 0.00 0.00 34 1007.3
20260901210045 93 215 10.0 18.0 0.00 0.00 0.00 32 1007.4
20260901204547 91 129 5.0 0.0 0.00 0.00 0.00 41 1007.8
20260901203041 90 158 5.0 8.0 0.00 0.00 0.00 45 1008.1
20260901201540 90 146 5.0 8.0 0.00 0.00 0.00 43 1008.2
20260901200040 92 135 6.0 11.0 0.00 0.00 0.00 39 1008.3
20260901194536 92 161 7.0 11.0 0.00 0.00 0.00 38 1008.3
20260901193033 91 101 8.0 12.0 0.00 0.00 0.00 42 1008.6
20260901191532 91 100 5.0 9.0 0.00 0.00 0.00 42 1008.9
20260901190033 91 86 5.0 11.0 0.00 0.00 0.00 43 1009.1
20260901184540 91 134 6.0 13.0 0.00 0.00 0.00 42 1009.1
20260901183030 90 147 6.0 13.0 0.00 0.00 0.00 43 1009.3
20260901181532 90 139 6.0 10.0 0.00 0.00 0.00 43 1009.9
20260901180024 89 167 4.0 9.0 0.00 0.00 0.00 45 1009.9
20260901174521 88 93 5.0 10.0 0.00 0.00 0.00 44 1010.1
20260901173018 87 77 7.0 11.0 0.00 0.00 0.00 48 1010.0
20260901171516 87 74 6.0 10.0 0.00 0.00 0.00 49 1010.2
20260901170019 86 108 1.0 9.0 0.00 0.00 0.00 48 1010.5
20260901164515 85 172 2.0 7.0 0.00 0.00 0.00 50 1010.8
20260901163013 84 87 3.0 7.0 0.00 0.00 0.00 52 1010.8
20260901161507 82 134 4.0 6.0 0.00 0.00 0.00 56 1010.9
20260901160005 81 43 1.0 5.0 0.00 0.00 0.00 59 1010.8
20260901154503 80 11 2.0 6.0 0.00 0.00 0.00 60 1010.8
20260901153102 80 85 5.0 10.0 0.00 0.00 0.00 62 1010.5
20260901151559 79 84 4.0 7.0 0.00 0.00 0.00 62 1010.6
20260901150107 79 109 1.0 4.0 0.00 0.00 0.00 60 1011.0
20260901144556 79 75 0.0 2.0 0.00 0.00 0.00 60 1011.1
20260901143054 76 85 0.0 2.0 0.00 0.00 0.00 66 1011.0
20260901141551 74 55 3.0 5.0 0.00 0.00 0.00 71 1010.9
20260901140053 72 60 4.0 7.0 0.00 0.00 0.00 75 1011.0
20260901134615 71 46 7.0 9.0 0.00 0.00 0.00 78 1011.0
20260901133056 69 222 0.0 4.0 0.00 0.00 0.00 81 1010.6
20260901131549 67 218 2.0 4.0 0.00 0.00 0.00 84 1010.5
20260901130049 66 199 1.0 2.0 0.00 0.00 0.00 85 1010.2
20260901124554 66 212 0.0 0.0 0.00 0.00 0.00 83 1010.0
20260901123045 67 213 0.0 0.0 0.00 0.00 0.00 80 1009.9
20260901121546 66 138 0.0 2.0 0.00 0.00 0.00 80 1009.7
20260901120044 66 133 0.0 1.0 0.00 0.00 0.00 80 1009.6